Time,TemperatureF,DewpointF,PressureIn,WindDirection,WindDirectionDegrees,WindSpeedMPH,WindSpeedGustMPH,Humidity,HourlyPrecipIn,Conditions,Clouds,dailyrainin,SoftwareType,DateUTC
2013-07-29 00:01:00,59.7,59.4,29.91,WSW,247,1.7,-999.0,99,-99.99,,,0.00,Acu-Link.com,2013-07-29 04:01:00,
2013-07-29 00:16:00,59.4,59.1,29.91,WSW,247,0.0,-999.0,99,-99.99,,,0.00,Acu-Link.com,2013-07-29 04:16:00,
2013-07-29 00:31:00,59.2,58.9,29.92,West,270,0.0,-999.0,99,-99.99,,,0.00,Acu-Link.com,2013-07-29 04:31:00,
2013-07-29 00:46:00,59.0,58.7,29.92,West,270,0.0,-999.0,99,-99.99,,,0.00,Acu-Link.com,2013-07-29 04:46:00,
2013-07-29 01:02:00,59.0,58.7,29.91,West,270,1.1,-999.0,99,-99.99,,,0.00,Acu-Link.com,2013-07-29 05:02:00,
2013-07-29 01:17:00,59.0,58.7,29.92,West,270,1.7,-999.0,99,-99.99,,,0.00,Acu-Link.com,2013-07-29 05:17:00,
2013-07-29 01:32:00,59.0,58.7,29.91,West,270,1.7,-999.0,99,-99.99,,,0.00,Acu-Link.com,2013-07-29 05:32:00,
2013-07-29 01:47:00,59.0,58.7,29.91,West,270,1.7,-999.0,99,-99.99,,,0.00,Acu-Link.com,2013-07-29 05:47:00,
2013-07-29 02:02:00,59.2,58.9,29.92,WSW,247,1.7,-999.0,99,-99.99,,,0.00,Acu-Link.com,2013-07-29 06:02:00,
2013-07-29 02:17:00,59.5,59.2,29.92,SW,225,2.7,-999.0,99,-99.99,,,0.00,Acu-Link.com,2013-07-29 06:17:00,
2013-07-29 02:32:00,59.5,59.2,29.91,West,270,1.7,-999.0,99,-99.99,,,0.00,Acu-Link.com,2013-07-29 06:32:00,
2013-07-29 02:47:00,59.4,59.1,29.93,SSW,202,2.2,-999.0,99,-99.99,,,0.00,Acu-Link.com,2013-07-29 06:47:00,
2013-07-29 03:02:00,58.6,58.3,29.92,SSW,202,0.0,-999.0,99,-99.99,,,0.00,Acu-Link.com,2013-07-29 07:02:00,
2013-07-29 03:18:00,58.1,57.8,29.92,NNE,22,0.0,-999.0,99,-99.99,,,0.00,Acu-Link.com,2013-07-29 07:18:00,
2013-07-29 03:33:00,57.7,57.4,29.92,WSW,247,1.7,-999.0,99,-99.99,,,0.00,Acu-Link.com,2013-07-29 07:33:00,
2013-07-29 03:48:00,57.4,57.1,29.92,West,270,0.0,-999.0,99,-99.99,,,0.00,Acu-Link.com,2013-07-29 07:48:00,
2013-07-29 04:03:00,56.5,56.2,29.93,West,270,0.0,-999.0,99,-99.99,,,0.00,Acu-Link.com,2013-07-29 08:03:00,
2013-07-29 04:18:00,55.8,55.5,29.93,WSW,247,1.7,-999.0,99,-99.99,,,0.00,Acu-Link.com,2013-07-29 08:18:00,
2013-07-29 04:34:00,55.9,55.6,29.93,WSW,247,1.7,-999.0,99,-99.99,,,0.00,Acu-Link.com,2013-07-29 08:34:00,
2013-07-29 04:49:00,55.4,55.1,29.93,SSW,202,0.0,-999.0,99,-99.99,,,0.00,Acu-Link.com,2013-07-29 08:49:00,
2013-07-29 05:04:00,54.9,54.6,29.93,SSW,202,0.0,-999.0,99,-99.99,,,0.00,Acu-Link.com,2013-07-29 09:04:00,
2013-07-29 05:19:00,54.7,54.4,29.94,SSW,202,0.0,-999.0,99,-99.99,,,0.00,Acu-Link.com,2013-07-29 09:19:00,
2013-07-29 05:34:00,54.7,54.4,29.93,ESE,112,1.7,-999.0,99,-99.99,,,0.00,Acu-Link.com,2013-07-29 09:34:00,
2013-07-29 05:49:00,55.0,54.7,29.93,WSW,247,1.7,-999.0,99,-99.99,,,0.00,Acu-Link.com,2013-07-29 09:49:00,
2013-07-29 06:04:00,55.0,54.7,29.94,SSW,202,1.1,-999.0,99,-99.99,,,0.00,Acu-Link.com,2013-07-29 10:04:00,
2013-07-29 06:19:00,55.8,55.5,29.93,SSW,202,0.0,-999.0,99,-99.99,,,0.00,Acu-Link.com,2013-07-29 10:19:00,
2013-07-29 06:35:00,56.8,56.5,29.94,East,90,1.1,-999.0,99,-99.99,,,0.00,Acu-Link.com,2013-07-29 10:35:00,
2013-07-29 06:50:00,57.4,57.1,29.94,East,90,2.2,-999.0,99,-99.99,,,0.00,Acu-Link.com,2013-07-29 10:50:00,
2013-07-29 07:05:00,58.3,58.0,29.94,East,90,1.7,-999.0,99,-99.99,,,0.00,Acu-Link.com,2013-07-29 11:05:00,
2013-07-29 07:20:00,59.9,59.6,29.94,East,90,1.7,-999.0,99,-99.99,,,0.00,Acu-Link.com,2013-07-29 11:20:00,
2013-07-29 07:35:00,62.2,60.4,29.94,South,180,1.7,-999.0,94,-99.99,,,0.00,Acu-Link.com,2013-07-29 11:35:00,
2013-07-29 07:50:00,62.6,59.0,29.95,SW,225,3.2,-999.0,88,-99.99,,,0.00,Acu-Link.com,2013-07-29 11:50:00,
2013-07-29 08:05:00,63.5,60.2,29.95,SW,225,2.7,-999.0,89,-99.99,,,0.00,Acu-Link.com,2013-07-29 12:05:00,
2013-07-29 08:20:00,63.9,59.3,29.96,WNW,292,2.2,-999.0,85,-99.99,,,0.00,Acu-Link.com,2013-07-29 12:20:00,
2013-07-29 08:35:00,64.9,58.2,29.96,SW,225,7.8,-999.0,79,-99.99,,,0.00,Acu-Link.com,2013-07-29 12:35:00,
2013-07-29 08:51:00,66.0,60.0,29.96,SW,225,3.7,-999.0,81,-99.99,,,0.00,Acu-Link.com,2013-07-29 12:51:00,
2013-07-29 09:06:00,67.8,59.6,29.96,WSW,247,3.7,-999.0,75,-99.99,,,0.00,Acu-Link.com,2013-07-29 13:06:00,
2013-07-29 09:21:00,65.3,56.4,29.96,WSW,247,7.8,-999.0,73,-99.99,,,0.00,Acu-Link.com,2013-07-29 13:21:00,
2013-07-29 10:06:00,68.7,58.9,29.97,SSW,202,3.7,-999.0,71,-99.99,,,0.00,Acu-Link.com,2013-07-29 14:06:00,
2013-07-29 10:21:00,69.6,57.7,29.97,SSW,202,6.3,-999.0,66,-99.99,,,0.00,Acu-Link.com,2013-07-29 14:21:00,
2013-07-29 10:36:00,69.8,60.4,29.97,West,270,1.7,-999.0,72,-99.99,,,0.00,Acu-Link.com,2013-07-29 14:36:00,
2013-07-29 11:07:00,70.9,61.0,29.97,West,270,2.2,-999.0,71,-99.99,,,0.00,Acu-Link.com,2013-07-29 15:07:00,
2013-07-29 11:22:00,71.8,59.8,29.97,South,180,1.1,-999.0,66,-99.99,,,0.00,Acu-Link.com,2013-07-29 15:22:00,
2013-07-29 11:37:00,70.9,58.5,29.97,SW,225,2.2,-999.0,65,-99.99,,,0.00,Acu-Link.com,2013-07-29 15:37:00,
2013-07-29 11:52:00,69.6,58.6,29.98,West,270,2.2,-999.0,68,-99.99,,,0.00,Acu-Link.com,2013-07-29 15:52:00,
2013-07-29 12:07:00,71.4,58.6,29.98,West,270,1.7,-999.0,64,-99.99,,,0.00,Acu-Link.com,2013-07-29 16:07:00,
2013-07-29 12:22:00,71.4,59.9,29.98,South,180,4.2,-999.0,67,-99.99,,,0.00,Acu-Link.com,2013-07-29 16:22:00,
2013-07-29 12:37:00,70.3,58.4,29.98,ENE,67,1.7,-999.0,66,-99.99,,,0.00,Acu-Link.com,2013-07-29 16:37:00,
2013-07-29 13:07:00,71.1,59.6,29.98,SW,225,3.7,-999.0,67,-99.99,,,0.00,Acu-Link.com,2013-07-29 17:07:00,
2013-07-29 13:23:00,70.3,58.8,29.98,SW,225,2.7,-999.0,67,-99.99,,,0.00,Acu-Link.com,2013-07-29 17:23:00,
2013-07-29 13:38:00,70.3,59.2,29.99,SSW,202,3.2,-999.0,68,-99.99,,,0.00,Acu-Link.com,2013-07-29 17:38:00,
2013-07-29 13:53:00,69.1,60.5,29.99,SSE,157,1.7,-999.0,74,-99.99,,,0.00,Acu-Link.com,2013-07-29 17:53:00,
2013-07-29 14:08:00,68.0,59.4,29.99,West,270,1.7,-999.0,74,-99.99,,,0.00,Acu-Link.com,2013-07-29 18:08:00,
2013-07-29 14:23:00,67.8,59.6,29.99,SSW,202,2.2,-999.0,75,-99.99,,,0.00,Acu-Link.com,2013-07-29 18:23:00,
2013-07-29 14:38:00,68.2,59.2,29.99,SW,225,1.7,-999.0,73,-99.99,,,0.00,Acu-Link.com,2013-07-29 18:38:00,
2013-07-29 14:53:00,67.8,60.3,30.00,West,270,2.7,-999.0,77,-99.99,,,0.00,Acu-Link.com,2013-07-29 18:53:00,
2013-07-29 15:08:00,67.6,59.4,30.00,West,270,1.7,-999.0,75,-99.99,,,0.00,Acu-Link.com,2013-07-29 19:08:00,
2013-07-29 15:23:00,70.2,59.5,30.00,SSE,157,2.2,-999.0,69,-99.99,,,0.00,Acu-Link.com,2013-07-29 19:23:00,
2013-07-29 15:39:00,70.7,58.8,30.00,SSW,202,2.7,-999.0,66,-99.99,,,0.00,Acu-Link.com,2013-07-29 19:39:00,
2013-07-29 15:54:00,70.2,57.0,30.00,SW,225,2.7,-999.0,63,-99.99,,,0.00,Acu-Link.com,2013-07-29 19:54:00,
2013-07-29 16:24:00,68.4,60.5,30.00,South,180,1.1,-999.0,76,-99.99,,,0.00,Acu-Link.com,2013-07-29 20:24:00,
2013-07-29 16:39:00,68.4,59.8,30.00,South,180,0.0,-999.0,74,-99.99,,,0.00,Acu-Link.com,2013-07-29 20:39:00,
2013-07-29 16:54:00,68.5,61.7,30.01,WSW,247,2.7,-999.0,79,-99.99,,,0.00,Acu-Link.com,2013-07-29 20:54:00,
2013-07-29 17:09:00,64.4,61.1,30.01,SW,225,5.8,-999.0,89,-99.99,,,0.05,Acu-Link.com,2013-07-29 21:09:00,
2013-07-29 17:39:00,63.5,61.7,30.02,WSW,247,1.7,-999.0,94,-99.99,,,0.05,Acu-Link.com,2013-07-29 21:39:00,
2013-07-29 17:55:00,63.3,61.8,30.02,SSW,202,2.2,-999.0,95,-99.99,,,0.05,Acu-Link.com,2013-07-29 21:55:00,
2013-07-29 18:10:00,63.9,61.5,30.01,South,180,1.7,-999.0,92,-99.99,,,0.05,Acu-Link.com,2013-07-29 22:10:00,
2013-07-29 18:40:00,65.8,63.7,30.01,South,180,0.0,-999.0,93,-99.99,,,0.05,Acu-Link.com,2013-07-29 22:40:00,
2013-07-29 18:55:00,66.4,63.1,30.01,SW,225,1.1,-999.0,89,-99.99,,,0.05,Acu-Link.com,2013-07-29 22:55:00,
2013-07-29 19:10:00,65.3,62.3,30.01,South,180,0.0,-999.0,90,-99.99,,,0.05,Acu-Link.com,2013-07-29 23:10:00,
2013-07-29 19:25:00,64.4,62.3,30.02,South,180,0.0,-999.0,93,-99.99,,,0.05,Acu-Link.com,2013-07-29 23:25:00,
2013-07-29 19:55:00,63.7,61.6,30.02,South,180,0.0,-999.0,93,-99.99,,,0.05,Acu-Link.com,2013-07-29 23:55:00,
2013-07-29 20:10:00,62.6,61.1,30.02,South,180,0.0,-999.0,95,-99.99,,,0.05,Acu-Link.com,2013-07-30 00:10:00,
2013-07-29 20:41:00,61.0,59.8,30.02,SSE,157,0.0,-999.0,96,-99.99,,,0.05,Acu-Link.com,2013-07-30 00:41:00,
2013-07-29 21:41:00,59.9,59.6,30.05,South,180,1.7,-999.0,99,-99.99,,,0.05,Acu-Link.com,2013-07-30 01:41:00,
2013-07-29 21:56:00,59.7,59.4,30.05,SSW,202,0.0,-999.0,99,-99.99,,,0.05,Acu-Link.com,2013-07-30 01:56:00,
2013-07-29 22:11:00,59.9,59.6,30.05,SSW,202,3.2,-999.0,99,-99.99,,,0.05,Acu-Link.com,2013-07-30 02:11:00,
2013-07-29 22:26:00,59.9,59.6,30.05,SW,225,2.7,-999.0,99,-99.99,,,0.05,Acu-Link.com,2013-07-30 02:26:00,
2013-07-29 22:42:00,59.9,59.3,30.06,WSW,247,3.7,-999.0,98,-99.99,,,0.05,Acu-Link.com,2013-07-30 02:42:00,
2013-07-29 22:57:00,60.6,58.9,30.05,WSW,247,4.2,-999.0,94,-99.99,,,0.05,Acu-Link.com,2013-07-30 02:57:00,
2013-07-29 23:12:00,61.0,58.7,30.06,West,270,3.7,-999.0,92,-99.99,,,0.05,Acu-Link.com,2013-07-30 03:12:00,
2013-07-29 23:27:00,61.0,58.4,30.05,SW,225,4.2,-999.0,91,-99.99,,,0.05,Acu-Link.com,2013-07-30 03:27:00,
2013-07-29 23:42:00,61.0,58.7,30.06,West,270,3.7,-999.0,92,-99.99,,,0.05,Acu-Link.com,2013-07-30 03:42:00,